Hourly Weather Roundup
Issued by NWS Central Illinois

Home | Current Version | Previous Version | Graphics & Text | Print | Product List | Glossary On
Versions: 1 2 3 4 5 6 7 8 9 10 11 12 13 14 15 16 17 18 19 20 21 22 23 24 25 26 27 28 29 30 31 32 33 34 35 36 37 38 39 40 41 42 43 44 45 46 47 48 49 50
000
NZUS43 KILX 050010
HWRILX

AREA WEATHER ROUNDUP
NATIONAL WEATHER SERVICE, LINCOLN IL
700 PM CDT SAT JUL 04 2015


CITY           SKY/WX    TMP DP  RH WIND       PRES   REMARKS
BLOOMINGTON    SUNNY     79  61  53 VRB5      30.00S HX  80
6HR MIN TEMP:  78; 6HR MAX TEMP:  81;

CHAMPAIGN      MOSUNNY   77  64  64 CALM      29.99F
6HR MIN TEMP:  77; 6HR MAX TEMP:  80;

DANVILLE       SUNNY     75  65  71 CALM      29.97S
6HR MIN TEMP:  75; 6HR MAX TEMP:  78;

DECATUR        PTSUNNY   78  66  66 E3        29.99S HX  80
6HR MIN TEMP:  77; 6HR MAX TEMP:  81;

EFFINGHAM      SUNNY     78  60  54 CALM      30.00R
FLORA          PTSUNNY   78  64  61 CALM      29.99R HX  80
6HR MIN TEMP:  77; 6HR MAX TEMP:  81;

GALESBURG      SUNNY     77  61  58 CALM      29.98S
JACKSONVILLE   SUNNY     80  67  64 E3        29.98R HX  82
6HR MIN TEMP:  80; 6HR MAX TEMP:  82;

LACON          SUNNY     78  60  55 S3        29.97F
6HR MIN TEMP:  77; 6HR MAX TEMP:  80;

LAWRENCEVILLE  PTSUNNY   78  68  71 N3        29.98R HX  80
6HR MIN TEMP:  78; 6HR MAX TEMP:  82;

LITCHFIELD     SUNNY     78  60  55 E5        29.99R
$$


CITY           SKY/WX    TMP DP  RH WIND       PRES   REMARKS
LINCOLN        SUNNY     78  60  54 CALM      29.98R
6HR MIN TEMP:  78; 6HR MAX TEMP:  83;

MACOMB         SUNNY     77  65  66 CALM      30.00S
MATTOON        SUNNY     77  62  59 N5        29.98S
6HR MIN TEMP:  76; 6HR MAX TEMP:  80;

MT CARMEL AP   PTSUNNY   81  64  57 CALM      29.98R HX  82
OLNEY-NOBLE AP PTSUNNY   79  64  61 CALM      29.99R HX  81
PARIS          SUNNY     77  64  64 CALM      30.00R
6HR MIN TEMP:  77; 6HR MAX TEMP:  80;

PEORIA         SUNNY     80  60  50 NE5       29.98F HX  81
6HR MIN TEMP:  78; 6HR MAX TEMP:  83;

PONTIAC        SUNNY     78  64  61 CALM      29.99S HX  80
RANTOUL        SUNNY     79  61  54 NW5       29.99S HX  80
ROBINSON       PTSUNNY   78  64  60 N5        29.99R HX  80
6HR MIN TEMP:  77; 6HR MAX TEMP:  82;

SPRINGFIELD    SUNNY     81  64  56 NE3       29.98S HX  82
6HR MIN TEMP:  80; 6HR MAX TEMP:  84;

TAYLORVILLE    MOSUNNY   75  63  64 CALM      29.99S
$$

...REGIONAL REPORTS...


CITY           SKY/WX    TMP DP  RH WIND       PRES   REMARKS
CHICAGO O`HARE MOSUNNY   78  56  46 SW5       29.97F
KANKAKEE       SUNNY     79  61  54 NW3       29.99S HX  80
MOLINE         SUNNY     78  61  55 CALM      29.97S HX  80
MOUNT STERLING NOT AVBL
MOUNT VERNON   PTSUNNY   79  64  61 CALM      29.99R HX  81
PITTSFIELD     SUNNY     78  67  70 E3        29.99S HX  80
QUINCY         SUNNY     79  60  52 CALM      29.97F HX  80
ROCKFORD       MOSUNNY   78  59  51 W5        30.00S
$$


CITY           SKY/WX    TMP DP  RH WIND       PRES   REMARKS
BURLINGTON     SUNNY     77  64  64 CALM      29.98S HAZE
CEDAR RAPIDS   SUNNY     76  65  68 S3        29.97S
DES MOINES     CLOUDY    80  59  48 S8        29.95S HX  81
KIRKSVILLE     SUNNY     79  60  52 SE5       29.98F HX  80
OTTUMWA        SUNNY     78  63  59 CALM      29.95F HX  80
ST LOUIS       MOSUNNY   81  61  50 E8        29.98S HX  82
$$


CITY           SKY/WX    TMP DP  RH WIND       PRES   REMARKS
TERRE HAUTE    MOSUNNY   78  63  59 N3        29.99R HX  80
EVANSVILLE     CLOUDY    79  68  69 NE5       29.97R HX  81
INDIANAPOLIS   MOSUNNY   78  55  44 NW7       29.98S
LAFAYETTE      SUNNY     76  61  59 W3        29.99R
MADISON        MOSUNNY   79  61  53 CALM      29.97S HX  80
MILWAUKEE      PTSUNNY   76  59  55 S9        29.98S
$$





USA.gov is the U.S. government's official web portal to all federal, state and local government web resources and services.